Vertical_Velocity
-1 -1 -5 -4 -3 -6 2 3 -6 -4 -1 1 -11 -4 -2 2 3 3 3 1 -0 1 2 1 2 -1 1 -2 2 -1 1 1 2 1 4 0 4 4 2 -0 -4 -0 1 -0
-2 -5 -4 -0 -7 -7 -8 -8 -2 -8 0 -18 -6 -2 -2 1 4 -1 -2 1 0 1 -0 0 -0 1 2 1 1 -2 -1 0 1 0 1 -3 -7 4 7 -2 2 4 -2 2
-2 -6 -2 0 -12 -1 -8 -9 -4 -6 -9 -1 -4 -2 -3 0 0 -0 1 1 0 -1 1 0 4 2 -0 1 -1 -0 1 0 -4 -15 3 5 -7 -3 2 -3 -7 4 3 5
-3 -2 -2 -8 -3 -6 -7 -4 -3 -7 -6 -8 -6 1 0 1 -0 -1 -1 -1 -2 -2 1 0 -0 2 1 3 -0 -1 -0 -5 1 0 1 -1 6 2 3 -12 3 -7 4 1
0 -0 1 -16 0 -5 -7 -11 -6 -3 2 -4 1 -3 -2 1 -2 -2 -3 1 -0 -1 -0 0 2 3 -4 0 -2 -5 -1 -2 1 1 -1 2 -7 2 7 3 -0 2 2 1
1 -7 -3 -5 -4 -4 -9 -7 -6 -3 -4 -4 -1 -4 0 -0 -1 -1 1 1 0 2 1 2 2 2 2 5 -1 -3 -3 -1 0 1 2 -0 -11 -6 4 6 7 5 -8 7
-1 -2 -9 -0 -4 -8 -13 -5 -6 -0 -10 -1 -4 -0 0 1 -1 0 0 1 -0 2 2 3 1 2 1 1 -1 1 2 -0 1 -0 1 -10 3 7 4 4 3 3 9 6
-3 -5 -8 -0 -2 -6 -4 -8 -6 -8 -5 -1 0 1 -4 -1 0 -5 2 1 0 -1 1 3 3 -1 4 3 -1 -1 -0 2 -1 -2 -1 2 -7 -2 -4 2 4 2 -0 4
3 -8 -4 4 1 -12 -10 -11 -6 -2 1 -8 -1 -5 -1 1 2 -4 0 3 -0 1 -4 -6 -7 -5 5 -17 -13 -1 1 2 -5 0 -4 -1 8 -1 5 2 0 4 1 1
-2 -8 -2 -12 -7 -11 -16 -6 -5 -0 -7 -3 -0 -6 -5 -3 -1 -6 -1 -0 -2 4 -1 -14 -6 -2 3 -10 -4 -22 -19 -14 -10 -1 0 0 4 -1 -2 -9 -15 -3 2 2
-4 -3 4 -4 -7 -6 -10 -10 -6 0 -7 -7 -1 -2 0 -2 -8 -9 3 -6 -1 -7 -18 -3 0 -8 -3 2 4 2 -3 -5 -1 -2 0 -5 1 -2 -7 6 2 -1 1 1
-10 -5 -5 -14 -3 -11 -12 -4 0 -6 -3 -7 -4 -2 -1 -4 -3 -1 -3 -5 -6 -4 -5 -3 -7 -4 3 1 -6 2 -7 3 2 6 -4 3 6 6 4 1 1 -0 1 2
-1 2 -10 -10 -9 -8 -5 -0 -4 -0 -5 -9 4 -2 -2 1 -0 -2 -2 -1 -3 -1 3 -3 -6 -6 -3 -2 -2 -3 2 4 2 -7 -2 -4 4 2 7 2 0 0 2 0
-8 -1 -9 -3 -13 -5 0 2 -9 -2 -1 -6 -3 -2 3 -1 -0 -0 -1 -0 -2 -1 -1 -2 -2 -3 1 -1 3 -0 3 -0 2 2 7 -7 1 7 -1 2 3 -0 2 0
-3 -9 -3 -5 -9 -2 0 -2 -8 -4 -0 -4 -5 0 -3 0 1 1 2 1 2 2 1 0 -1 3 3 -1 -3 -5 -0 1 -1 -6 2 5 5 2 1 -2 -3 2 -1 -1
-5 -3 -3 -6 -5 -3 -4 -11 -3 2 -1 -7 -2 -1 -3 -2 -0 0 1 2 1 0 -2 -1 2 2 2 -2 -3 4 5 5 9 1 -1 4 5 5 3 -1 1 -0 -0 2
-4 -0 -1 -7 -3 3 -9 -12 4 -1 -3 -14 -6 1 1 -0 2 1 2 1 2 1 -0 -2 1 1 -2 0 -2 0 6 3 1 5 0 0 3 -10 -0 -0 1 3 4 1
-6 -2 -0 -6 2 -1 4 -3 1 -4 -9 -13 -5 2 -1 3 -3 0 -0 -0 1 0 2 -4 1 3 -1 -6 7 6 1 -1 2 3 5 4 2 5 7 4 -1 -0 2 1
-8 -1 -2 -6 4 -3 -5 -1 -5 -2 -8 -8 2 -5 -8 3 -3 -4 -3 -4 -2 0 0 -0 -0 -0 -3 13 1 2 0 -1 -7 -1 0 0 1 -3 -0 1 4 1 -2 -1
-3 0 -0 -3 -5 -2 -2 -3 -1 -6 -6 -15 -4 3 -2 1 -1 -3 -1 -0 -1 1 -1 -2 2 -1 10 2 7 3 -1 -1 -0 -8 -12 -6 3 -1 -3 -3 0 1 1 -1
-1 -2 -1 -4 -1 -3 -1 -5 -5 -4 -3 -8 -3 -2 -4 -7 -7 -5 -4 -4 1 2 -0 2 1 4 6 3 3 4 3 3 5 3 3 3 2 -1 2 1 0 -1 -1 1
-1 1 -3 -2 -4 -1 -4 -7 -0 -2 -3 5 -3 -9 -6 -3 -7 -3 -1 -1 1 -2 0 2 -1 -3 3 0 -2 1 2 4 4 5 3 1 1 1 -0 1 2 3 2 1
-0 -3 -1 -2 -6 -10 -8 -5 -5 1 0 2 -2 -1 -5 -5 -2 -2 0 -0 -3 4 -0 -5 1 1 6 2 2 5 5 4 3 3 5 4 2 3 2 -3 1 0 2 1
-0 -3 -3 -5 -5 -5 -0 -3 -0 -1 -5 -1 2 -0 -6 -3 -2 -4 -1 -1 -1 -4 -1 -6 -3 1 -0 1 2 -2 -1 -0 1 3 3 3 3 2 0 -1 -2 -4 -3 -3
-2 -3 -5 -4 -4 -3 -1 -2 2 -3 -3 -2 -4 -5 -3 -2 -1 -7 -2 -2 -6 -2 -1 5 2 3 -2 0 1 1 1 -1 0 -0 -1 1 -0 -0 1 -1 -0 2 1 -0
-8 -5 -6 -3 -5 -5 2 0 -1 -3 -2 -4 -7 -3 -0 -1 -6 -2 -4 -3 -2 -6 2 6 2 3 2 1 1 2 -0 1 -0 1 2 1 -2 -2 -2 3 3 -1 -0 1
-7 -4 -1 -5 -3 -1 1 -0 -4 -4 -2 -5 -7 -5 -11 -3 -3 -3 3 4 4 3 3 3 4 -2 -3 1 3 -1 1 4 2 3 2 -2 2 1 5 4 -1 -0 1 -0
Height
3073 3065 3056 3047 3038 3031 3022 3012 3002 2993 2986 2982 2974 2976 2976 2975 2970 2967 2964 2961 2958 2956 2954 2954 2954 2953 2950 2946 2941 2935 2935 2935 2934 2937 2937 2933 2929 2921 2915 2913 2915 2914 2915 2931
3071 3062 3053 3045 3036 3026 3016 3008 3000 2992 2985 2978 2977 2978 2978 2975 2971 2967 2964 2961 2959 2957 2956 2957 2956 2954 2952 2948 2939 2936 2936 2935 2935 2938 2941 2937 2928 2923 2916 2915 2916 2921 2921 2933
3069 3060 3053 3044 3034 3025 3016 3008 3000 2992 2984 2981 2982 2981 2979 2975 2971 2968 2965 2963 2961 2959 2959 2958 2959 2957 2953 2948 2939 2937 2938 2938 2936 2945 2952 2946 2938 2930 2924 2920 2923 2930 2931 2933
3068 3060 3051 3041 3032 3023 3016 3007 2999 2995 2990 2983 2983 2982 2980 2976 2973 2971 2968 2965 2962 2961 2960 2960 2959 2958 2954 2949 2943 2941 2941 2943 2944 2945 2946 2945 2944 2939 2934 2929 2933 2934 2937 2934
3067 3059 3049 3040 3032 3022 3013 3005 3003 2999 2995 2990 2988 2984 2981 2978 2975 2973 2970 2967 2965 2963 2962 2962 2961 2959 2955 2953 2950 2944 2943 2946 2946 2946 2946 2946 2946 2945 2944 2940 2939 2939 2937 2935
3067 3058 3049 3042 3031 3021 3012 3006 3003 3001 2998 2993 2989 2985 2983 2980 2978 2976 2973 2970 2967 2965 2964 2963 2962 2962 2961 2958 2953 2948 2947 2947 2947 2948 2948 2947 2948 2948 2948 2947 2945 2942 2939 2939
3066 3058 3051 3041 3030 3019 3015 3011 3007 3003 2999 2996 2992 2989 2986 2983 2981 2979 2976 2973 2970 2968 2964 2964 2964 2964 2963 2962 2959 2954 2950 2949 2949 2949 2949 2958 2961 2954 2950 2948 2947 2944 2943 2940
3066 3060 3051 3044 3033 3023 3018 3014 3010 3005 3002 2999 2996 2994 2990 2987 2985 2982 2979 2976 2974 2971 2967 2965 2966 2966 2967 2966 2964 2959 2955 2951 2951 2952 2953 2959 2957 2953 2950 2948 2948 2944 2941 2938
3067 3060 3052 3044 3036 3028 3022 3017 3012 3010 3006 3001 3000 2997 2995 2992 2989 2986 2983 2981 2978 2976 2972 2969 2971 2975 2976 2975 2970 2967 2963 2958 2955 2954 2956 2963 2963 2957 2952 2948 2946 2945 2940 2936
3070 3061 3055 3047 3040 3033 3025 3022 3016 3012 3006 3005 3003 3000 2999 2996 2994 2990 2988 2986 2983 2982 2978 2975 2978 2984 2985 2984 2978 2970 2962 2959 2959 2961 2961 2962 2961 2957 2953 2952 2954 2942 2939 2935
3072 3065 3058 3051 3045 3036 3031 3025 3018 3016 3009 3007 3005 3004 3003 3000 2998 2995 2994 2991 2988 2986 2982 2984 2987 2990 2990 2990 2987 2982 2979 2974 2970 2968 2966 2967 2963 2957 2955 2955 2948 2943 2938 2934
3072 3068 3061 3056 3048 3038 3034 3028 3022 3019 3015 3011 3010 3008 3007 3005 3002 2999 2996 2995 2993 2992 2991 2991 2992 2991 2993 2990 2989 2988 2986 2985 2982 2979 2973 2969 2964 2958 2956 2950 2944 2939 2934 2931
3074 3069 3063 3057 3051 3042 3038 3032 3028 3023 3019 3015 3014 3012 3011 3008 3006 3004 3003 3001 2999 2997 2996 2994 2994 2994 2994 2992 2992 2989 2985 2981 2977 2974 2971 2965 2961 2957 2951 2945 2940 2935 2931 2926
3079 3076 3067 3059 3053 3047 3042 3039 3032 3026 3022 3020 3019 3017 3014 3011 3009 3007 3005 3003 3002 3000 2998 2997 2995 2995 2996 2994 2994 2990 2986 2980 2973 2969 2965 2957 2955 2951 2944 2939 2934 2929 2925 2921
3081 3078 3071 3063 3056 3052 3046 3043 3036 3030 3029 3025 3022 3021 3017 3013 3011 3009 3007 3006 3004 3003 3001 2999 2998 2996 2995 2994 2992 2988 2984 2978 2972 2965 2961 2955 2949 2943 2938 2932 2927 2923 2917 2913
3083 3079 3073 3065 3059 3057 3052 3045 3039 3036 3033 3027 3025 3023 3019 3014 3011 3010 3008 3007 3006 3005 3003 3001 2999 2998 2997 2994 2993 2988 2982 2978 2972 2963 2956 2951 2944 2939 2932 2926 2921 2916 2912 2906
3084 3080 3074 3067 3061 3059 3057 3049 3047 3041 3036 3029 3027 3026 3023 3017 3014 3011 3009 3008 3007 3006 3004 3002 3000 2999 2998 2996 2991 2985 2979 2972 2966 2959 2950 2944 2938 2930 2926 2920 2915 2910 2905 2900
3085 3081 3076 3071 3067 3062 3059 3054 3049 3044 3037 3032 3032 3030 3024 3021 3016 3013 3010 3009 3008 3006 3005 3003 3000 2999 2998 2996 2990 2982 2973 2965 2959 2953 2947 2939 2931 2924 2918 2911 2905 2900 2896 2892
3086 3081 3077 3074 3073 3066 3061 3056 3053 3047 3044 3038 3038 3032 3027 3023 3018 3015 3012 3011 3009 3008 3007 3004 3003 3001 2999 2994 2984 2976 2967 2959 2950 2944 2937 2929 2921 2914 2907 2901 2895 2889 2885 2881
3087 3083 3078 3075 3074 3066 3062 3057 3053 3048 3044 3041 3040 3037 3032 3028 3021 3018 3014 3012 3010 3008 3009 3004 3002 3000 2999 2991 2982 2972 2963 2955 2946 2936 2927 2919 2912 2903 2896 2890 2885 2880 2875 2871
3089 3084 3080 3076 3072 3069 3063 3060 3055 3051 3050 3047 3045 3041 3035 3030 3024 3020 3018 3015 3012 3010 3010 3005 3003 2999 2994 2985 2978 2969 2960 2951 2942 2933 2924 2915 2905 2896 2889 2883 2878 2873 2868 2864
3090 3085 3081 3078 3073 3072 3070 3064 3062 3059 3058 3055 3047 3042 3038 3031 3025 3022 3020 3018 3015 3013 3010 3007 3003 2999 2990 2980 2972 2963 2954 2945 2936 2926 2916 2907 2899 2891 2884 2877 2870 2866 2861 2857
3091 3086 3082 3080 3081 3079 3075 3073 3071 3068 3062 3056 3050 3045 3040 3033 3028 3026 3024 3022 3020 3015 3012 3010 3005 2995 2986 2976 2967 2959 2950 2941 2932 2921 2911 2901 2893 2886 2878 2870 2864 2858 2853 2848
3091 3088 3086 3086 3085 3084 3080 3077 3072 3068 3063 3058 3052 3046 3042 3037 3033 3030 3028 3025 3020 3017 3013 3009 3000 2991 2982 2974 2965 2955 2946 2937 2928 2918 2908 2898 2890 2882 2873 2866 2859 2853 2848 2842
3091 3091 3092 3091 3088 3084 3081 3077 3073 3069 3064 3060 3053 3046 3044 3040 3037 3037 3034 3030 3025 3022 3017 3008 2998 2990 2980 2971 2963 2954 2945 2936 2926 2916 2906 2897 2888 2879 2872 2865 2857 2851 2845 2839
3093 3094 3094 3091 3087 3085 3081 3078 3075 3071 3066 3060 3053 3049 3046 3045 3044 3042 3039 3035 3030 3023 3014 3007 2997 2988 2979 2971 2963 2955 2945 2936 2925 2915 2906 2896 2887 2879 2871 2864 2857 2850 2843 2837
3098 3096 3093 3090 3088 3086 3082 3079 3075 3071 3066 3060 3056 3056 3055 3051 3050 3045 3040 3035 3029 3021 3014 3006 2996 2987 2978 2971 2964 2954 2945 2936 2926 2917 2907 2896 2888 2880 2873 2866 2857 2850 2843 2837